YAOGAN-21

Last updated on Wed Jul 09 2025 00:02:29 GMT+0000 (Coordinated Universal Time)

1 40143U 14053A 25189.59659218 .00004674 00000+0 19786-3 0 9999 2 40143 97.1980 239.4609 0010813 273.7702 86.2299 15.23593492602616
UTC large
Height (km)
Speed (km/s)
/
Latitude / Longitude
Inclination (degrees)
Orbital Period (minutes)
Azimuth
Elevation
Range (km)
Doppler Factor

Next 0 passes for location: London (51.5072 / 0.1276)

Sorry there are no passes over London.